sat.trackr.live / text

‹ back to catalog

STARLINK-5970

NORAD 56450 · 2023-064C

PAYLOAD ACTIVE UNKNOWN

§ Identity

Operator
Country
US
Launch date
2023-05-10
Launch site
AFWTR
Launch vehicle
Mass (kg)
RCS (m²)

Purposes: comms

External: N2YO · Heavens-Above · Gunter

§ Orbital elements

Epoch: 2026-05-24T22:06:13.041792Z

Period
96.11 min
Inclination
70.0005°
Eccentricity
0.0002631
Mean motion
14.98327641 rev/d
Perigee alt
570.2 km
Apogee alt
573.9 km
Semi-major
6,950.2 km
B*
-1.1578e-4
RAAN
312.2930°
Arg perigee
270.5989°
Mean anomaly
89.4869°
Rev number
16,666

§ Raw data

STARLINK-59701 56450U 23064C   26144.92098428 -.00001474  00000+0 -11578-3 0  99962 56450  70.0005 312.2930 0002631 270.5989  89.4869 14.98327641166660

JSON: /api/v1/satellites/56450 · /tle

For live sub-satellite position, see the globe view (requires WebGL).

§ Visibility from observer

Set your observer location to see the next 7 days of passes ≥ 10°. The values pass through the URL so the page stays shareable.

No JS? Fill the form by hand. The geolocation button needs JavaScript.